Regional Weather Roundup
Issued by NWS Lake Charles, LA

Home | Current Version | Previous Version | Text Only | Print | Product List | Glossary On
Versions: 1 2 3 4 5 6 7 8 9 10 11 12 13 14 15 16 17 18 19 20 21 22 23 24 25 26 27 28 29 30 31 32 33 34 35 36 37 38 39 40 41 42 43 44 45 46 47 48 49 50
000
ASUS44 KLCH 010810
RWRLCH
RWRLCH
REGIONAL WEATHER ROUNDUP
NATIONAL WEATHER SERVICE LAKE CHARLES LA
300 AM CDT TUE SEP 01 2015

Note: "fair" indicates few or no clouds below 12,000 feet with no
significant weather and/or obstructions to visibility.


ACROSS SOUTHEAST TEXAS

CITY           SKY/WX    TMP DP  RH WIND       PRES   REMARKS
BEAUMONT       MOCLDY    75  74  96 CALM      30.01F
BEAUMONT CITY    N/A     74  73  95 SE3       30.02F
ORANGE         PTSUNNY  N/A N/A N/A CALM      30.03F
JASPER         CLOUDY    75  74  95 CALM      30.06F
$$

ACROSS CENTRAL LOUISIANA

CITY           SKY/WX    TMP DP  RH WIND       PRES   REMARKS
LEESVILLE      CLOUDY    76  73  90 SE6       30.03F
FULLERTON        N/A     75  72  90 CALM      30.02F
ALEXANDRIA INT CLOUDY    75  72  90 SE3       30.03S
ESLER FIELD    CLOUDY    74  70  87 CALM      30.05S
DERIDDER         N/A     76  73  91 CALM      30.06F
OAKDALE          N/A     72  71  96 CALM      30.03F FOG
OPELOUSAS        N/A     72  71  98 CALM      30.04F
$$

ACROSS SOUTHWEST AND SOUTH CENTRAL LOUISIANA

CITY           SKY/WX    TMP DP  RH WIND       PRES   REMARKS
SULPHUR        CLOUDY    77  76  96 E5        30.04S
LAKE CHARLES   CLOUDY    76  74  93 SE10      30.03F
CHENNAULT INT  CLOUDY    77  74  92 S6        30.04S THUNDER
CAMERON PHI    PTSUNNY   81  75  83 S8        30.05F
DEQUINCY         N/A     74  74 100 CALM      30.04S
JENNINGS         N/A     75  74  96 CALM      30.03S THUNDER
LAFAYETTE      CLOUDY    76  74  93 CALM      30.03F
NEW IBERIA     CLOUDY    78  75  90 CALM      30.03F
ABBEVILLE        N/A     74  74  99 NE3       30.03F
PATTERSON      CLOUDY    73  72  94 E3        30.04F
SALT POINT       N/A     77  76  96 CALM      30.00F
$$

SELECTED SITES ACROSS THE REGION

CITY           SKY/WX    TMP DP  RH WIND       PRES   REMARKS
HOUSTON BUSH   CLOUDY    74  73  97 N3        30.02F
HOUSTON HOBBY  MOCLDY    78  71  79 CALM      30.00F
GALVESTON      MOCLDY    81  75  82 SE14      30.00F
COLLEGE STAT   PTCLDY    74  70  87 S3        30.04S
CONROE         MOCLDY    70  68  93 CALM      30.04F
HUNTSVILLE     MOCLDY    75  71  87 S3        30.04F
LUFKIN         MOCLDY    71  69  93 CALM      30.04F
SHREVEPORT     CLOUDY    74  66  76 SW5       30.04S
MONROE         CLOUDY    74  70  87 S3        30.06R
NATCHEZ MS     PTCLDY    72  66  83 CALM      30.07S
BATON ROUGE    MOCLDY    73  71  93 NE3       30.04F
N.O. INTL ARPT PTCLDY    76  71  85 CALM      30.04F
SLIDELL        CLEAR     69  68  96 N3        30.04S
$$

MARINE REPORTS

STATION/POSITION TIME  TEMP    WIND        PRES    VSBY  WAVE
                       AIR SEA DIR/SP/G                  HT/PER
                 (UTC) (F)     (DEG/KT/KT) (MB)    (MI)  (FT/S)
BUOY 30 S HIGH I 0750   83 85  150/ 12/ 14 1015.7F         3/ 5
SEA RIM ST PARK  0800   81     190/  9/ 11 1016.8F
PORT ARTHUR      0700      86  180/  3/  5   N/A
SABINE PASS N    0700   80 85  190/  7/  9   N/A
TEXAS POINT      NOT AVBL
CALCASIEU PASS   0700   80 84  190/  5/  8   N/A
LK CHARLES BEACH 0700   78 86                N/A
MARSH ISLAND     0700   88     180/ 11/ 15   N/A           0
FRESH WATER LOCK 0700   83 84  140/  7/  9   N/A
AMERADA PASS     0700   78 83   CALM  /  1   N/A
$$



USA.gov is the U.S. government's official web portal to all federal, state and local government web resources and services.